This is the latest recevied weather packets stored in our database for station/object F4GQK-13. If no packets are shown the sender has not sent any weather packets the latest 10 day(s).
| Time | Temp. | Humidity | Pressure | Rain* | Wind** | Luminosity | Snow |
|---|---|---|---|---|---|---|---|
| 1777058105 | 13.89° C | 56% | 1020 hPa | 0 mm | - | 0 W/m² | - |
| 1777057805 | 14.44° C | 54% | 1020 hPa | 0 mm | - | 0 W/m² | - |
| 1777057505 | 14.44° C | 51% | 1019.8 hPa | 0 mm | - | 1 W/m² | - |
| 1777057205 | 15° C | 49% | 1019.9 hPa | 0 mm | - | 2 W/m² | - |
| 1777056905 | 15° C | 49% | 1019.8 hPa | 0 mm | - | 2 W/m² | - |
| 1777056605 | 15.56° C | 48% | 1019.8 hPa | 0 mm | - | 4 W/m² | - |
| 1777056305 | 16.11° C | 46% | 1019.8 hPa | 0 mm | - | 6 W/m² | - |
| 1777056005 | 16.67° C | 45% | 1019.8 hPa | 0 mm | - | 8 W/m² | - |
| 1777055706 | 16.67° C | 43% | 1019.8 hPa | 0 mm | - | 11 W/m² | - |
| 1777055405 | 17.22° C | 43% | 1019.8 hPa | 0 mm | - | 14 W/m² | - |
| 1777055105 | 17.78° C | 41% | 1019.7 hPa | 0 mm | - | 18 W/m² | - |
| 1777054805 | 17.78° C | 42% | 1019.6 hPa | 0 mm | - | 23 W/m² | - |
| 1777054505 | 18.33° C | 40% | 1019.6 hPa | 0 mm | - | 29 W/m² | - |
| 1777054205 | 18.33° C | 41% | 1019.7 hPa | 0 mm | - | 34 W/m² | - |
| 1777053905 | 18.33° C | 40% | 1019.7 hPa | 0 mm | - | 37 W/m² | - |
| 1777053606 | 18.89° C | 40% | 1019.8 hPa | 0 mm | - | 49 W/m² | - |
| 1777053305 | 19.44° C | 38% | 1019.7 hPa | 0 mm | - | 55 W/m² | - |
| 1777053005 | 19.44° C | 37% | 1019.7 hPa | 0 mm | - | 63 W/m² | - |
| 1777052705 | 19.44° C | 36% | 1019.9 hPa | 0 mm | - | 73 W/m² | - |
| 1777052406 | 19.44° C | 37% | 1019.7 hPa | 0 mm | - | 82 W/m² | - |
| 1777052103 | 20° C | 36% | 1019.8 hPa | 0 mm | - | 92 W/m² | - |
| 1777051804 | 20° C | 36% | 1019.8 hPa | 0 mm | - | 109 W/m² | - |
| 1777051505 | 20° C | 36% | 1019.8 hPa | 0 mm | - | 122 W/m² | - |
| 1777051206 | 20.56° C | 36% | 1020 hPa | 0 mm | - | 135 W/m² | - |
| 1777050904 | 20.56° C | 35% | 1019.9 hPa | 0 mm | - | 150 W/m² | - |
* Rain latest hour (hover to see other rain measurements)
** Current wind speed in m/s (hover to see current wind gust speed)